Weather History for Adak, AK

Change the Weather History Date:

Saturday, June 15, 2013

  Actual Average Record
Temperature  
Mean Temperature 46 °F -  
Max Temperature 51 °F 49 °F 58 °F (1982)
Min Temperature 41 °F 40 °F 30 °F (1965)
Degree Days  
Heating Degree Days 19    
Moisture  
Dew Point 42 °F    
Average Humidity 89    
Maximum Humidity 100    
Minimum Humidity 71    
Precipitation  
Precipitation 0.08 in - - ()
Sea Level Pressure  
Sea Level Pressure 29.73 in    
Wind  
Wind Speed 6 mph (West)    
Max Wind Speed 23 mph    
Max Gust Speed 24 mph    
Visibility 8 miles    
Events      
Averages and records for this station are not official NWS values.
T = Trace of Precipitation, MM = Missing Value Source: NWS Daily Summary

Daily Weather History Graph

Daily Weather History Graph

Search for Another Location

Airport:

Trip Planner

Search our weather history database for the weather conditions in past years. The results will help you decide how hot, cold, wet, or windy it might be!

Date:

Astronomy

Jun. 15, 2013 Rise Set
Actual Time 6:26 AM HADT 11:07 PM HADT
Civil Twilight 5:38 AM HADT 11:56 PM HADT
Nautical Twilight 4:21 AM HADT 1:13 AM HADT
Astronomical Twilight 3:19 AM HADT 2:14 AM HADT
Moon 2:04 PM HADT (6/15) 2:06 AM HADT (6/15)
Length of Visible Light 18h 18m
Length of Day
16h 41m
Waxing Crescent, 41% of the Moon is Illuminated
Jun 15
Waxing Crescent
Jun 16
First Quarter
Jun 23
Full
Jun 29
Last Quarter
Jul 7
New

Hourly Weather History & Observations

Time (HADT) Temp. Windchill Dew Point Humidity Pressure Visibility Wind Dir Wind Speed Gust Speed Precip Events Conditions
12:16 AM 42.8 °F 41.1 °F 42.8 °F 100% 29.67 in 10.0 mi ENE 3.5 mph - N/A   Overcast
12:36 AM 42.8 °F 41.1 °F 42.8 °F 100% 29.67 in 4.0 mi ENE 3.5 mph - N/A   Overcast
12:56 AM 42.8 °F - 42.8 °F 100% 29.66 in 3.0 mi Calm Calm - N/A   Overcast
1:16 AM 42.8 °F - 41.0 °F 93% 29.66 in 3.0 mi Calm Calm - N/A   Overcast
1:36 AM 44.6 °F 42.2 °F 42.8 °F 93% 29.65 in 4.0 mi North 4.6 mph - N/A   Overcast
1:56 AM 44.6 °F - 42.8 °F 93% 29.65 in 5.0 mi Calm Calm - N/A   Overcast
2:16 AM 42.8 °F - 42.8 °F 100% 29.65 in 5.0 mi Calm Calm - N/A   Overcast
2:36 AM 42.8 °F - 42.8 °F 100% 29.64 in 1.8 mi Calm Calm - N/A   Overcast
2:56 AM 42.8 °F - 42.8 °F 100% 29.64 in 1.5 mi Calm Calm - N/A   Overcast
3:16 AM 44.6 °F 40.7 °F 42.8 °F 93% 29.64 in 4.0 mi NNE 6.9 mph - N/A   Overcast
3:36 AM 42.8 °F 39.3 °F 42.8 °F 100% 29.64 in 2.0 mi North 5.8 mph - N/A   Overcast
3:56 AM 42.8 °F 39.3 °F 42.8 °F 100% 29.63 in 5.0 mi NNE 5.8 mph - N/A   Overcast
4:16 AM 42.8 °F 40.1 °F 42.8 °F 100% 29.63 in 4.0 mi North 4.6 mph - 0.02 in   Overcast
4:36 AM 42.8 °F 39.3 °F 42.8 °F 100% 29.62 in 8.0 mi North 5.8 mph - 0.02 in   Overcast
4:56 AM 42.8 °F 38.6 °F 42.8 °F 100% 29.62 in 9.0 mi NE 6.9 mph - 0.02 in   Overcast
5:16 AM 42.8 °F 40.1 °F 42.8 °F 100% 29.62 in 5.0 mi NE 4.6 mph - N/A   Overcast
5:36 AM 42.8 °F 40.1 °F 42.8 °F 100% 29.62 in 7.0 mi NE 4.6 mph - 0.01 in   Overcast
5:56 AM 42.8 °F 41.1 °F 41.0 °F 93% 29.62 in 9.0 mi NNE 3.5 mph - 0.02 in   Overcast
6:16 AM 42.8 °F 39.3 °F 42.8 °F 100% 29.62 in 10.0 mi North 5.8 mph - N/A   Overcast
6:36 AM 42.8 °F - 42.8 °F 100% 29.62 in 10.0 mi Calm Calm - N/A   Overcast
6:56 AM 42.8 °F - 42.8 °F 100% 29.62 in 7.0 mi Calm Calm - 0.01 in   Overcast
7:16 AM 42.8 °F - 42.8 °F 100% 29.62 in 2.0 mi Calm Calm - 0.01 in   Overcast
7:36 AM 42.8 °F - 42.8 °F 100% 29.63 in 2.0 mi Calm Calm - 0.02 in   Overcast
7:56 AM 42.8 °F - 42.8 °F 100% 29.63 in 2.5 mi Calm Calm - 0.02 in   Overcast
8:16 AM 44.6 °F - 42.8 °F 93% 29.63 in 2.5 mi Calm Calm - N/A   Overcast
8:36 AM 44.6 °F 42.2 °F 42.8 °F 93% 29.63 in 4.0 mi SW 4.6 mph - N/A   Overcast
8:56 AM 44.6 °F 40.7 °F 44.6 °F 100% 29.63 in 7.0 mi WSW 6.9 mph - N/A   Overcast
9:16 AM 44.6 °F 39.2 °F 42.8 °F 93% 29.64 in 5.0 mi WSW 10.4 mph - N/A   Overcast
9:36 AM 44.6 °F 39.7 °F 42.8 °F 93% 29.64 in 10.0 mi WSW 9.2 mph - N/A   Overcast
9:56 AM 44.6 °F 39.7 °F 42.8 °F 93% 29.64 in 10.0 mi WSW 9.2 mph - N/A   Overcast
10:16 AM 44.6 °F 39.2 °F 42.8 °F 93% 29.65 in 8.0 mi WSW 10.4 mph - N/A   Overcast
10:36 AM 44.6 °F 40.7 °F 42.8 °F 93% 29.65 in 10.0 mi WNW 6.9 mph - 0.01 in   Overcast
10:56 AM 44.6 °F - 42.8 °F 93% 29.66 in 10.0 mi Calm Calm - 0.01 in   Overcast
11:16 AM 44.6 °F 41.4 °F 42.8 °F 93% 29.66 in 7.0 mi West 5.8 mph - N/A   Overcast
11:36 AM 44.6 °F 41.4 °F 44.6 °F 100% 29.67 in 10.0 mi North 5.8 mph - 0.01 in   Overcast
11:56 AM 46.4 °F - 44.6 °F 93% 29.67 in 10.0 mi Calm Calm - 0.01 in   Overcast
12:16 PM 46.4 °F 45.2 °F 44.6 °F 93% 29.68 in 10.0 mi East 3.5 mph - N/A   Overcast
12:36 PM 46.4 °F 41.5 °F 44.6 °F 93% 29.69 in 10.0 mi WSW 10.4 mph 17.3 mph N/A   Overcast
12:56 PM 48.2 °F - 46.4 °F 93% 29.69 in 10.0 mi WSW 12.7 mph 20.7 mph N/A   Overcast
1:16 PM 48.2 °F - 46.4 °F 93% 29.70 in 10.0 mi WSW 12.7 mph 21.9 mph N/A   Overcast
1:36 PM 48.2 °F - 46.4 °F 93% 29.71 in 10.0 mi East 11.5 mph - N/A   Overcast
1:56 PM 46.4 °F 41.9 °F 42.8 °F 87% 29.73 in 10.0 mi WSW 9.2 mph - N/A   Overcast
2:16 PM 48.2 °F - 44.6 °F 87% 29.72 in 10.0 mi WSW 23.0 mph - N/A   Overcast
2:36 PM 48.2 °F - 44.6 °F 87% 29.74 in 10.0 mi Calm Calm - N/A   Overcast
2:56 PM 48.2 °F - 44.6 °F 87% 29.75 in 10.0 mi WSW 19.6 mph 24.2 mph N/A   Mostly Cloudy
3:16 PM 50.0 °F - 44.6 °F 82% 29.76 in 10.0 mi West 15.0 mph 19.6 mph N/A   Overcast
3:36 PM 48.2 °F - 42.8 °F 82% 29.77 in 10.0 mi West 11.5 mph 20.7 mph N/A   Overcast
3:56 PM 51.8 °F - 42.8 °F 71% 29.78 in 10.0 mi West 16.1 mph 23.0 mph N/A   Overcast
4:16 PM 48.2 °F - 41.0 °F 76% 29.78 in 10.0 mi West 17.3 mph - N/A   Mostly Cloudy
4:36 PM 50.0 °F - 42.8 °F 76% 29.79 in 10.0 mi West 13.8 mph 21.9 mph N/A   Mostly Cloudy
4:56 PM 48.2 °F - 42.8 °F 82% 29.80 in 10.0 mi West 13.8 mph 19.6 mph N/A   Overcast
5:16 PM 48.2 °F - 41.0 °F 76% 29.81 in 10.0 mi WSW 16.1 mph - N/A   Overcast
5:36 PM 48.2 °F - 41.0 °F 76% 29.81 in 10.0 mi WSW 13.8 mph - N/A   Overcast
5:56 PM 48.2 °F - 41.0 °F 76% 29.82 in 10.0 mi WSW 13.8 mph - N/A   Overcast
6:16 PM 50.0 °F - 42.8 °F 76% 29.83 in 10.0 mi WSW 13.8 mph 17.3 mph N/A   Overcast
6:36 PM 48.2 °F - 39.2 °F 71% 29.83 in 10.0 mi WSW 11.5 mph 17.3 mph N/A   Overcast
6:56 PM 46.4 °F 40.7 °F 39.2 °F 76% 29.84 in 10.0 mi WSW 12.7 mph 16.1 mph N/A   Overcast
7:16 PM 46.4 °F 41.1 °F 39.2 °F 76% 29.85 in 10.0 mi WSW 11.5 mph - N/A   Overcast
7:36 PM 46.4 °F 41.5 °F 41.0 °F 81% 29.85 in 10.0 mi WSW 10.4 mph - N/A   Overcast
7:56 PM 46.4 °F 42.9 °F 41.0 °F 81% 29.86 in 10.0 mi WSW 6.9 mph - N/A   Overcast
8:16 PM 46.4 °F 42.9 °F 41.0 °F 81% 29.86 in 10.0 mi West 6.9 mph - N/A   Overcast
8:36 PM 46.4 °F 43.5 °F 41.0 °F 81% 29.86 in 10.0 mi WSW 5.8 mph - N/A   Overcast
8:56 PM 46.4 °F 42.4 °F 41.0 °F 81% 29.87 in 10.0 mi WSW 8.1 mph - N/A   Overcast
9:16 PM 46.4 °F 41.5 °F 41.0 °F 81% 29.87 in 10.0 mi WSW 10.4 mph - N/A   Overcast
9:36 PM 44.6 °F 38.8 °F 41.0 °F 87% 29.88 in 10.0 mi WSW 11.5 mph - N/A   Overcast
9:56 PM 44.6 °F 39.7 °F 41.0 °F 87% 29.88 in 10.0 mi WSW 9.2 mph - N/A   Overcast
10:16 PM 44.6 °F 40.2 °F 39.2 °F 81% 29.89 in 10.0 mi SW 8.1 mph - N/A   Overcast
10:36 PM 44.6 °F 40.7 °F 39.2 °F 81% 29.89 in 10.0 mi SW 6.9 mph - N/A   Overcast
10:56 PM 46.4 °F 42.9 °F 39.2 °F 76% 29.89 in 10.0 mi SW 6.9 mph - N/A   Overcast
11:16 PM 46.4 °F 42.4 °F 39.2 °F 76% 29.90 in 10.0 mi SW 8.1 mph - N/A   Overcast
11:36 PM 44.6 °F 42.2 °F 39.2 °F 81% 29.91 in 10.0 mi SW 4.6 mph - N/A   Overcast
11:56 PM 44.6 °F 41.4 °F 39.2 °F 81% 29.91 in 10.0 mi SSW 5.8 mph - N/A   Overcast